Skip Page Navigation
NASA JPL Caltech
NASA Logo - Jet Propulsion Laboratory + View the NASA Portal
+ Near-Earth Object (NEO) Program
Search JPL
JPL Home Earth Solar System Stars & Galaxies Technology
JPL Solar System Dynamics
BODIES ORBITS EPHEMERIDES TOOLS PHYSICAL DATA DISCOVERY FAQ SITE MAP
JPL Small-Body Database Browser
Search: [ help ]  
6407 (1992 PF2)
Classification: Main-belt Asteroid          SPK-ID: 2006407
Ephemeris | Orbit Diagram | Orbital Elements | Physical Parameters | Discovery Circumstances | Close-Approach Data ]

[ show orbit diagram ]
Orbital Elements at Epoch 2457600.5 (2016-Jul-31.0) TDB
Reference: JPL 17 (heliocentric ecliptic J2000)
 Element Value Uncertainty (1-sigma)   Units 
e .1529456187735528 4.5279e-08  
a 2.266149111915349 1.0016e-08 au
q 1.919551533760319 1.0525e-07 au
i 5.086540908391754 5.5887e-06 deg
node 209.914102312925 4.9857e-05 deg
peri 50.17899991120875 5.3788e-05 deg
M 55.29600895273661 2.3131e-05 deg
tp 2457409.108592068167
(2016-Jan-21.60859207)
7.9513e-05 JED
period 1246.037610315636
3.41
8.2609e-06
2.262e-08
d
yr
n .2889158377079868 1.9154e-09 deg/d
Q 2.612746690070379 1.1548e-08 au
  Orbit Determination Parameters
   # obs. used (total)      1433  
   data-arc span      23575 days (64.54 yr)  
   first obs. used      1951-09-22  
   last obs. used      2016-04-08  
   planetary ephem.      DE431  
   SB-pert. ephem.      SB431-BIG16  
   condition code      0  
   fit RMS      .49014  
   data source      ORB  
   producer      Otto Matic  
   solution date      2016-Apr-25 12:55:41  

Additional Information
 Earth MOID = .909083 au 
 Jupiter MOID = 2.44014 au 
 T_jup = 3.595 
[ show covariance matrix ]

Ephemeris | Orbit Diagram | Orbital Elements | Physical Parameters | Discovery Circumstances | Close-Approach Data ]

Physical Parameter Table
Parameter Symbol Value Units Sigma Reference Notes
absolute magnitude H 13.8 mag n/a MPO337308  
rotation period rot_per 3.14 h n/a LCDB (Rev. 2016-February); Warner et al., 2009 Published Reference List:
[Behrend, R. (2009) Observatoire de Geneve web site, http://obswww.unige.ch/~behrend/page_cou.html]

6407 (1992 PF2)          Discovered 1992-Aug-02 by Holt, H. E. at Palomar
Reference: DISCOVERY.DBLast Updated: 2003-08-29

[ show close-approach data ]
Alternate Designations
 1992 PF2 = 1976 YM3 = 1982 SU10 
Ephemeris | Orbit Diagram | Orbital Elements | Physical Parameters | Discovery Circumstances | Close-Approach Data ]
ABOUT SSD CREDITS/AWARDS PRIVACY/COPYRIGHT GLOSSARY LINKS
FirstGov 2016-May-03 01:09 UT
(server date/time)  
NASA Home Page
Site Manager:   Ryan S. Park
Webmaster  Alan B. Chamberlin